Location: Bu�n Treun
(12.1333°N, 108.3167°E)
Time: 23:08:55
(UTC+00:00)

Intelsat 5-1 Rocket - Pass Details

Date: 13 July 2020
Orbit: 311 x 7608 km, 24.0° (Epoch: 14 August)

Event Time Altitude Azimuth Distance (km) Brightness Sun altitude
Rises 12:48:54 0° 277° (W) 4,330 7.6 -21.3°
Reaches altitude 10° 12:54:09 10° 254° (WSW) 2,280 5.5 -22.4°
Maximum altitude 12:56:34 13° 223° (SW) 1,628 4.3 -23.0°
Enters shadow 12:57:15 13° 211° (SSW) 1,550 4.1 -23.1°
